Regional Weather Roundup
Issued by NWS

Home | Current Version | Previous Version | Graphics & Text | Print | Product List | Glossary On
Versions: 1 2 3 4 5 6 7 8 9 10 11 12 13 14 15 16 17 18 19 20 21 22 23 24 25 26 27 28 29 30 31 32 33 34 35 36 37 38 39 40 41 42 43 44 45 46 47 48 49 50
000
ASUS44 KMEG 260610
RWRTN
TENNESSEE HOURLY STATE WEATHER ROUNDUP
NATIONAL WEATHER SERVICE MEMPHIS TN
1200 AM CST MON JAN 26 2015

TNZ002-004-019-021-049-052-054-088>092-260700-
WEST TENNESSEE

CITY           SKY/WX    TMP DP  RH WIND       PRES   REMARKS
MEMPHIS INTL   CLOUDY    43  35  73 NW13G23   29.94R
NWS MEMPHIS      N/A     42 N/A N/A MISG        N/A
JACKSON        CLOUDY    41  37  86 NW18G26   29.88R
DYERSBURG      CLOUDY    39  25  56 N18G25    29.94R WCI  30
UNION CITY     CLOUDY    36  34  93 NW16      29.89R WCI  26
PARIS          CLOUDY    36  34  93 NW13      29.85R WCI  27
LEXINGTON      CLOUDY    41  39  93 NW14      29.81R
SAVANNAH       CLOUDY    41  37  87 W12       29.84S
$$

TNZ008-025-027-028-033-062-065-066-260700-
NORTH MIDDLE TENNESSEE

CITY           SKY/WX    TMP DP  RH WIND       PRES   REMARKS
NASHVILLE      CLOUDY    44  41  89 NW13      29.75R
CLARKSVILLE    CLOUDY    40  37  89 NW21G33   29.79R WCI  30
SMYRNA         LGT RAIN  43  42  96 NW10      29.75R FOG
COOKEVILLE     CLOUDY    41  39  93 W3        29.69S
CROSSVILLE     LGT RAIN  40  36  86 W12G22    29.67R WCI  33
$$

TNZ061-075-076-078-094-096-097-260700-
SOUTH MIDDLE TENNESSEE

CITY           SKY/WX    TMP DP  RH WIND       PRES   REMARKS
FAYETTEVILLE   CLOUDY    41  39  93 MISG      29.75S
TULLAHOMA      CLOUDY    41  39  93 W9        29.73S
WINCHESTER     CLOUDY    43  39  87 W7        29.74S
MCMINNVILLE    CLOUDY    43  43 100 W9        29.71S
COLUMBIA       CLOUDY   N/A N/A N/A VRB6      29.75S
SHELBYVILLE    CLOUDY    45  43  93 W10       29.75S
$$

TNZ017-018-042-046-047-260700-
NORTHEAST TENNESSEE

CITY           SKY/WX    TMP DP  RH WIND       PRES   REMARKS
TRI CITIES     CLOUDY    42  35  76 NW3       29.65F
ELIZABETHTON   CLOUDY    39  34  81 CALM      29.65F
$$

TNZ012-013-036-069-073-074-260700-
CENTRAL EAST TENNESSEE

CITY           SKY/WX    TMP DP  RH WIND       PRES   REMARKS
KNOXVILLE      LGT RAIN  44  40  85 S10       29.68F
OAK RIDGE      CLOUDY    44  41  89 CALM      29.67F
GATLINBURG     CLOUDY    43  39  87 SW9       29.67F
MORRISTOWN     MOCLDY    43  41  93 SW7       29.66F
$$

TNZ083-085-099-260700-
SOUTHEAST TENNESSEE

CITY           SKY/WX    TMP DP  RH WIND       PRES   REMARKS
CHATTANOOGA    CLOUDY    47  40  76 W8        29.72S
$$

SKY/WX REPORTED AS FAIR MEANS FEW OR NO CLOUDS BELOW
12 THOUSAND FEET.




USA.gov is the U.S. government's official web portal to all federal, state and local government web resources and services.